Location: Allen Fire Department Station 4
(33.1073°N, 96.6988°W)
Time: 12:11:59
(UTC+00:00)

Cosmos 1408 Rocket - Pass Details

Date: 03 December 2021
Orbit: 602 x 630 km, 82.6° (Epoch: 25 January)

Event Time Altitude Azimuth Distance (km) Brightness Sun altitude
Rises 11:59:58 0° 179° (S) 2,844 7.2 -15.2°
Reaches altitude 10° 12:02:11 10° 177° (S) 1,942 6.4 -14.8°
Maximum altitude 12:06:26 69° 95° (E) 648 3.8 -13.9°
Drops below altitude 10° 12:10:43 10° 12° (NNE) 1,949 6.1 -13.1°
Sets 12:12:56 0° 10° (N) 2,855 6.9 -12.6°
